Location: Columbia
(38.9520°N, 92.3340°W)
Time: 03:47:46
(UTC-05:00)

SJ-11-01 - Visible Passes

Search period start: 23 May 2015 00:00
Search period end: 02 June 2015 00:00
Orbit: 685 x 703 km, 98.2° (Epoch: 22 May)

Date Brightness Start Highest point End Pass type
(mag) Time Alt. Az. Time Alt. Az. Time Alt. Az.
23 May 6.3 22:07:37 10° SSW 22:11:29 24° W 22:15:15 10° NW visible
24 May 4.3 21:09:15 10° SSE 21:13:56 83° ENE 21:18:38 10° N visible
25 May 5.6 21:49:55 10° SSW 21:54:15 37° W 21:58:34 10° NNW visible
26 May 4.5 20:52:19 10° SSE 20:56:53 54° ENE 21:01:27 10° N visible
26 May 6.9 22:32:17 10° WSW 22:34:52 14° W 22:37:13 10° WNW visible
27 May 4.9 21:32:28 10° S 21:37:05 56° W 21:41:41 10° NNW visible
28 May 6.5 22:13:56 10° SW 22:17:33 21° W 22:21:03 10° NW visible
29 May 4.3 21:15:16 10° SSE 21:19:57 86° W 21:24:38 10° NNW visible
30 May 5.9 21:56:06 10° SSW 22:00:18 32° W 22:04:27 10° NNW visible
31 May 4.4 20:58:14 10° SSE 21:02:50 62° ENE 21:07:28 10° N visible
31 May 7.0 22:39:01 10° WSW 22:40:57 12° W 22:42:37 10° WNW visible
01 Jun 5.1 21:38:33 10° S 21:43:04 48° W 21:47:36 10° NNW visible
